Regional Weather Roundup
Issued by NWS

Home | Current Version | Previous Version | Text Only | Print | Product List | Glossary Off
Versions: 1 2 3 4 5 6 7 8 9 10 11 12 13 14 15 16 17 18 19 20 21 22 23 24 25 26 27 28 29 30 31 32 33 34 35 36 37 38 39 40 41 42 43 44 45 46 47 48 49 50

000
ASUS43 KLSX 292007
RWRMO

WEATHER SUMMARY FOR MISSOURI
NATIONAL WEATHER SERVICE SPRINGFIELD MO
200 PM CST THU JAN 29 2015

NOTE: "FAIR" INDICATES FEW OR NO CLOUDS BELOW 12,000 FEET WITH NO
       SIGNIFICANT WEATHER AND/OR OBSTRUCTIONS TO VISIBILITY.
       CURRENT SKY AND/OR WEATHER CONDITIONS ARE NOT AVAILABLE FOR
       CHILLICOTHE AND FARMINGTON.

MOZ001>031-035>038-043-044-053-054-292100-
...NORTHERN AND WESTERN MISSOURI...

CITY           SKY/WX    TMP DP  RH WIND       PRES   REMARKS
KANSAS CTY INT CLOUDY    41  27  57 N22       30.36R
KANSAS C DTWN  CLOUDY    43  27  53 N14G23    30.37R
LEE`S SUMMIT   CLOUDY    42  27  55 N18G25    30.36R
ST JOSEPH      CLOUDY    41  26  55 N26G32    30.38S
CHILLICOTHE      N/A     41  29  62 NW17G23   30.32R
KIRKSVILLE     CLOUDY    37  28  70 NW14G25   30.26R WCI  28

$$
MOZ066>068-077>081-088>096-101>105-292100-
...SOUTHWEST MISSOURI...

CITY           SKY/WX    TMP DP  RH WIND       PRES   REMARKS
SPRINGFIELD    CLOUDY    40  29  64 NW21      30.30S
JOPLIN         CLOUDY    45  29  53 NW21G29   30.37S

$$
MOZ032>034-039>042-045>050-055>058-069>072-292100-
...CENTRAL MISSOURI...

CITY           SKY/WX    TMP DP  RH WIND       PRES   REMARKS
COLUMBIA       CLOUDY    40  30  67 NW17G25   30.25R
JEFFERSON CITY CLOUDY    42  29  59 NW16G24   30.27R
ROLLA          CLOUDY    38  28  67 NW16G23   30.22R WCI  29
SEDALIA        CLOUDY    42  29  59 NW23      30.31R
WHITEMAN AFB   PTSUNNY   42  28  56 NW18G25   30.31R
WARRENSBURG    CLOUDY    41  28  60 NW18G26   30.34R
OSAGE BEACH    CLOUDY    41  27  56 NW9G17    30.28S

$$
MOZ051-052-059>065-292100-
...EAST CENTRAL MISSOURI...

CITY           SKY/WX    TMP DP  RH WIND       PRES   REMARKS
ST LOUIS INTL  CLOUDY    42  31  64 W16       30.18R
SPIRIT OF STL  CLOUDY    42  30  62 W16G25    30.19S
ST CHARLES     CLOUDY    41  31  67 NW16G28   30.18R

$$
MOZ072>076-082>087-097>100-106>115-292100-
...SOUTH CENTRAL AND SOUTHEAST MISSOURI...

CITY           SKY/WX    TMP DP  RH WIND       PRES   REMARKS
CAPE GIRARDEAU CLOUDY    43  33  68 NW13G24   30.19R
FARMINGTON     CLOUDY    39  28  65 NW14G22   30.22R
POPLAR BLUFF   CLOUDY    45  34  65 NW14G28   30.19R
WEST PLAINS    CLOUDY    40  30  67 NW15G25   30.24F

$$



USA.gov is the U.S. government's official web portal to all federal, state and local government web resources and services.